Regional Weather Roundup
Issued by NWS State College, PA

Home | Current Version | Previous Version | Graphics & Text | Print | Product List | Glossary On
Versions: 1 2 3 4 5 6 7 8 9 10 11 12 13 14 15 16 17 18 19 20 21 22 23 24 25 26 27 28 29 30 31 32 33 34 35 36 37 38 39 40 41 42 43 44 45 46 47 48 49 50
000
ASUS41 KCTP 050610
RWRCTP

REGIONAL WEATHER ROUNDUP
NATIONAL WEATHER SERVICE STATE COLLEGE PA
200 AM EDT WED AUG 05 2015

Note: "fair" indicates few or no clouds below 12,000 feet with no
significant weather and/or obstructions to visibility.

* = STATION THAT DOES NOT REPORT PRECIPITATION /E.G. RAIN...SNOW...ETC/
    THUNDER OR FOG.

PAZ002>004-007>009-013>016-020>023-029>032-050700-
WESTERN PENNSYLVANIA

CITY           SKY/WX    TMP DP  RH WIND       PRES   REMARKS
ERIE           PTCLDY    65  58  78 S5        29.96F
MEADVILLE      CLEAR     63  55  75 CALM      29.99F
FRANKLIN*      CLEAR     57  52  82 SW5       30.01F
NEW CASTLE     FAIR      58  57  96 CALM      30.00F
BEAVER COUNTY  NOT AVBL
BUTLER*        PTCLDY    61  55  82 CALM      30.01F
PITTSBURGH INT PTCLDY    65  56  72 CALM      30.00F
PITTSBURGH     PTCLDY    68  52  56 W6        29.99F
INDIANA*       CLOUDY    59  57  94 CALM      30.04R
LATROBE        NOT AVBL
WASHINGTON CO* NOT AVBL
$$

PAZ004>006-010>012-017>019-024>028-033>037-041-042-045-046-049>053-050700-
CENTRAL PENNSYLVANIA

CITY           SKY/WX    TMP DP  RH WIND       PRES   REMARKS
BRADFORD       CLEAR     54  52  93 CALM      30.00F
DUBOIS         CLEAR     60  54  80 CALM      29.99F
CLEARFIELD     CLEAR     57  54  89 CALM      29.99F
JOHNSTOWN      PTCLDY    64  52  64 SW6       30.03F
ALTOONA        CLEAR     59  56  89 S3        30.00F
STATE COLLEGE  PTCLDY    60  55  81 CALM      29.97F
WILLIAMSPORT   CLEAR     62  57  83 NW3       29.94S
SELINSGROVE    CLEAR     57  55  93 CALM      29.94F
FT INDIANTOWN  CLEAR     58  55  89 N3        29.94S
CAPITAL CITY   CLEAR     65  57  75 CALM      29.94S
HARRISBURG     MOCLDY    69  61  75 CALM      29.93S
YORK           MOCLDY    66  63  90 CALM      29.95S
$$

PAZ038>040-043-044-047-048-054-055-060>062-067>071-050700-
EASTERN PENNSYLVANIA

CITY           SKY/WX    TMP DP  RH WIND       PRES   REMARKS
SCRANTON       PTCLDY    64  56  75 SE5       29.94F
MOUNT POCONO   PTCLDY    56  53  90 NW3       29.98F
ALLENTOWN      CLEAR     61  56  83 CALM      29.94S
QUAKERTOWN*    PTCLDY    59  57  94 CALM      29.96R
READING        CLEAR     65  59  81 CALM      29.93S
LANCASTER      PTCLDY    66  60  81 CALM      29.94S
COATESVILLE    MOCLDY    72  54  53 S3        29.96S
POTTSTOWN      PTCLDY    63  59  87 CALM      29.95S
BLUE BELL      PTCLDY    64  61  88 CALM      29.93S
DOYLESTOWN     CLOUDY    66  59  78 CALM      29.94R
WILLOW GROVE   NOT AVBL
NORTH PHILA    MOCLDY    73  52  47 CALM      29.94S
PHILADELPHIA   MOCLDY    80  52  37 CALM      29.93S
$$


USA.gov is the U.S. government's official web portal to all federal, state and local government web resources and services.